Location: Misciano
(43.5000°N, 11.9500°E)
Time: 09:27:12
(UTC+00:00)

NOSS 2 (A) - Pass Details

Date: 13 August 2020
Orbit: 273 x 1575 km, 63.3° (Epoch: 06 February)

Event Time Altitude Azimuth Distance (km) Brightness Sun altitude
Rises 19:51:50 0° 324° (NW) 2,077 9.8 -15.6°
Reaches altitude 10° 19:53:52 10° 326° (NW) 1,175 8.2 -15.9°
Maximum altitude 19:56:22 79° 54° (NE) 292 3.8 -16.3°
Enters shadow 19:56:24 79° 64° (ENE) 292 3.8 -16.3°
